Regional Weather Roundup
Issued by NWS

Home | Current Version | Previous Version | Text Only | Print | Product List | Glossary Off
Versions: 1 2 3 4 5 6 7 8 9 10 11 12 13 14 15 16 17 18 19 20 21 22 23 24 25 26 27 28 29 30 31 32 33 34 35 36 37 38 39 40 41 42 43 44 45 46 47 48 49 50

000
ASUS43 KMPX 271901
RWRMN
WEATHER ROUNDUP FOR MINNESOTA
NATIONAL WEATHER SERVICE TWIN CITIES/CHANHASSEN MN
200 PM CDT FRI MAY 27 2016


NOTE: "FAIR" INDICATES FEW OR NO CLOUDS BELOW 12,000 FEET WITH NO
SIGNIFICANT WEATHER AND/OR OBSTRUCTIONS TO VISIBILITY. N/A MEANS
CURRENT SKY AND/OR WEATHER CONDITIONS ARE NOT AVAILABLE.

MNZ060>063-068>070-272000-
   Twin Cities Metro

CITY           SKY/WX    TMP DP  RH WIND       PRES   REMARKS
TWIN CITIES    LGT RAIN  64  60  87 N5        29.80S
ST PAUL        LGT RAIN  64  60  87 N5        29.80S
CRYSTAL        LGT RAIN  64  60  87 N5        29.79S FOG
EDEN PRAIRIE   LGT RAIN  65  60  84 NE3       29.79S
SOUTH ST PAUL  LGT RAIN  64  61  89 N3        29.79S
LAKE ELMO      LGT RAIN  64  63  94 N3        29.81S
$$
MNZ001>005-007-008-013>017-022>024-027-028-272000-
   Northwest Minnesota

CITY           SKY/WX    TMP DP  RH WIND       PRES   REMARKS
BEMIDJI        CLOUDY    66  56  70 SE23G30   29.83R
HALLOCK        MOSUNNY   70  54  56 E3        29.79F
ROSEAU         CLOUDY    72  61  68 CALM      29.79F
WARROAD        PTSUNNY   68  59  73 NE12      29.81F
THIEF RVR FALL PTSUNNY   72  54  53 NE3       29.80S
CROOKSTON      CLOUDY    70  57  64 N9        29.78F
FOSSTON        CLOUDY    73  57  56 SE13G20   29.78S
DETROIT LAKES  PTSUNNY   70  55  60 SE16      29.79S
MOORHEAD       CLOUDY    75  59  57 N8        29.74S
PARK RAPIDS    CLOUDY    67  56  67 E12G21    29.81S
MAHNOMEN       FAIR      74  55  50 SE18G24   29.76S
$$
MNZ006-009>011-018-025>026-272000-
   North Central Minnesota

CITY           SKY/WX    TMP DP  RH WIND       PRES   REMARKS
BAUDETTE       LGT RAIN  70  54  56 SE12      29.80F
FLAG ISLAND    MOSUNNY   63  54  72 S3        29.82S
INTL FALLS     CLOUDY    67  55  65 VRB6      29.86S
WASKISH        CLOUDY    70  57  64 SE15G25   29.83S
BIG FORK       RAIN      61  57  88 SE5       29.89S
LONGVILLE      LGT RAIN  57  57 100 E5        29.86S
GRAND RAPIDS   LGT RAIN  59  57  93 CALM      29.90F
CRANE LAKE     DRIZZLE   63  55  77 S8        29.91S
ORR            DRIZZLE   59  54  82 S8        29.88F
COOK           DRIZZLE   61  57  88 SE6       29.92S
WALKER         CLOUDY    60  57  89 E9        29.85R
$$
MNZ012-019>021-037-272000-
   Northeast Minnesota

CITY           SKY/WX    TMP DP  RH WIND       PRES   REMARKS
DULUTH         LGT RAIN  62  58  86 N9        29.88F
ELY            LGT RAIN  61  55  82 CALM      29.92F
HIBBING        LGT RAIN  59  58  96 E6        29.90F
EVELETH        LGT RAIN  59  57  94 E6        29.92F
DULUTH HARBOR  LGT RAIN  46  45  93 E7        29.91S
TWO HARBORS    CLOUDY    63  57  82 N3        29.88F
SILVER BAY     LGT RAIN  63  59  88 CALM      29.90S
GRAND MARAIS     N/A     45  42  89 CALM      29.94R
G MARAIS ARPRT CLOUDY    63  52  67 SE3       29.95S
$$
MNZ029>031-032-039>041-046>048-054>057-064-272000-
   West Central Minnesota

CITY           SKY/WX    TMP DP  RH WIND       PRES   REMARKS
FERGUS FALLS   CLOUDY    70  57  64 SE10      29.73F
WHEATON        CLOUDY    70  61  73 SE12      29.77F
MORRIS         LGT RAIN  64  63  94 NE3       29.76F
ALEXANDRIA     CLOUDY    63  60  90 W3        29.80R
ELBOW LAKE     DRIZZLE   64  61  88 SE8       29.78S
WADENA         LGT RAIN  66  57  72 SE10G17   29.79S
GLENWOOD       CLOUDY    72  57  60 SE9       29.78F
APPLETON       PTSUNNY   70  61  73 N10       29.75S
BENSON         PTSUNNY   66  61  82 N7        29.76S
ORTONVILLE     LGT RAIN  63  59  88 NW3       29.76F
MADISON        CLOUDY    68  59  73 NW6       29.76S
WILLMAR        PTSUNNY   72  61  68 SE12      29.78S
$$
MNZ033>034-036-042>043-049>051-058-059-272000-
   Central Minnesota

CITY           SKY/WX    TMP DP  RH WIND       PRES   REMARKS
ST CLOUD       CLOUDY    63  62  97 E6        29.81S
SAUK CENTRE    MOCLDY    67  59  73 SE13G18   29.80R
PAYNESVILLE    LGT RAIN  65  61  84 SE7       29.80R
AITKIN         MIX PCPN  63  57  82 CALM      29.83F
PINE RIVER     LGT RAIN  63  59  88 SE8       29.88R
BRAINERD       RAIN      62  60  93 VRB7      29.84S FOG
STAPLES        CLOUDY    66  55  68 SE7G17    29.81S
LONG PRAIRIE   PTSUNNY   66  59  77 E12       29.81R
LITTLE FALLS   RAIN      63  59  88 SE7       29.83R
LITCHFIELD     CLOUDY    66  64  94 E7        29.80R
BUFFALO        LGT RAIN  64  60  87 E7        29.81S
MAPLE LAKE     PTSUNNY   65  63  93 E6        29.81F
HUTCHINSON     CLOUDY    67  63  89 E3        29.79F
$$
MNZ037-044-045-052-053-272000-
   East Central Minnesota

CITY           SKY/WX    TMP DP  RH WIND       PRES   REMARKS
PRINCETON      LGT RAIN  64  63  94 NE5       29.82F
MORA           RAIN      59  55  88 CALM      29.84F
CAMBRIDGE      RAIN      64  55  72 W5        29.80F
RUSH CITY      CLOUDY    63  61  92 NW5       29.81F
MOOSE LAKE     LGT RAIN  61  57  88 NE6       29.83F
HINCKLEY       LGT RAIN  64  63  94 N7        29.82F
CLOQUET        DRIZZLE   61  57  88 NE5       29.87F
MCGREGOR       CLOUDY    61  59  94 NE5       29.86F
$$
MNZ071>073-080-081-089-090-097-098-272000-
   Southwest Minnesota

CITY           SKY/WX    TMP DP  RH WIND       PRES   REMARKS
MONTEVIDEO     CLOUDY    70  57  64 NW8       29.78R
GRANITE FALLS  CLOUDY    75  56  51 SW8       29.76S
CANBY          CLOUDY    72  60  65 NW12      29.77F
MARSHALL       PTSUNNY   73  56  54 W10       29.76S
REDWOOD FALLS  CLOUDY    72  56  57 E5        29.75S
OLIVIA         CLOUDY    70  55  60 SE7       29.76S
PIPESTONE      CLOUDY    72  55  56 N8        29.77S
WINDOM         MOSUNNY   72  57  60 CALM      29.77R
WORTHINGTON    CLOUDY    69  57  65 SE7       29.78S
JACKSON        CLOUDY    70  55  60 S6        29.78R
TRACY          PTSUNNY   74  55  51 SW3       29.76F
SLAYTON        CLOUDY    72  51  47 CALM      29.78R
$$
MNZ065>067-074>077-082>085-091>093-272000-
   South Central Minnesota

CITY           SKY/WX    TMP DP  RH WIND       PRES   REMARKS
MANKATO        CLOUDY    66  61  82 SE8       29.78S
NEW ULM        LGT RAIN  66  63  88 S3        29.78R
ST JAMES       CLOUDY    63  55  77 SE5       29.78F
FAIRMONT       MOSUNNY   70  59  68 S9        29.77S
GLENCOE        CLOUDY    69  64  84 SE8       29.78S
FARIBAULT      CLOUDY    63  63 100 CALM      29.80S
OWATONNA       LGT RAIN  64  61  88 CALM      29.79F
WASECA         CLOUDY    63  61  94 E8        29.79F FOG
ALBERT LEA     LGT RAIN  64  63  94 CALM      29.77F
$$
MNZ078>079-086>088-094>096-272000-
   Southeast Minnesota

CITY           SKY/WX    TMP DP  RH WIND       PRES   REMARKS
ROCHESTER      CLOUDY    66  64  93 N3        29.78F
RED WING       RAIN      66  63  88 CALM      29.77F
STANTON        LGT RAIN  65  60  84 NE3       29.78S
DODGE CENTER   RAIN      64  63  94 NE9       29.78F
WINONA         CLOUDY    73  66  78 SE6       29.77F
AUSTIN         RAIN      64  61  88 CALM      29.77S
PRESTON        RAIN      66  64  91 SE8       29.77F
$$
ABBREVIATIONS USED IN REMARKS
   TC - TEMPERATURES IN CELSIUS
  WCI - WIND CHILL INDEX
   HX - HEAT INDEX
  VSB - VISIBILITY
$$



USA.gov is the U.S. government's official web portal to all federal, state and local government web resources and services.